Torna al catalogo

INNOSAT3

AttivoRadioamatoreSSO
NORAD 64894·PAYLOAD·🇲🇾 Malaysia
Questo nome del satellite non è ancora stato confermato da fonti ufficiali.

Lanciato Jul 25, 2025 da Vostochny Cosmodrome

Loading…

Prossimi Passaggi (prossime 24 ore)

TLE

AggiornatoSource: Space-Track

Epoca: Sep 14, 2026, 13:42 UTC

1 64894U 25155U   26257.57108318  .00039388  00000-0  68902-3 0  9993
2 64894  97.4578 231.6860 0004012 165.8897 194.2467 15.50525325 94784

Traccia INNOSAT3 in tempo reale con AllMySat

Download on the App Store